Weather History for Menomonie, WI

Change the Weather History Date:

Friday, July 20, 2012

  Actual Average (KEAU) Record (KEAU)
Temperature  
Mean Temperature 70 °F 72 °F  
Max Temperature 80 °F 83 °F 102 °F (1932)
Min Temperature 59 °F 60 °F 44 °F (1966)
Degree Days  
Heating Degree Days 0 0  
Month to date heating degree days 2  
Since 1 June heating degree days 64  
Since 1 July heating degree days 2  
Cooling Degree Days 4 7  
Month to date cooling degree days 139  
Year to date cooling degree days 291  
Since 1 June cooling degree days 259  
Growing Degree Days 20 (Base 50)    
Moisture  
Dew Point 61 °F    
Average Humidity 72    
Maximum Humidity 94    
Minimum Humidity 51    
Precipitation  
Precipitation 0.00 in 0.12 in 1.55 in (1987)
Month to date precipitation 2.48  
Year to date precipitation 16.25  
Snow  
Snow 0.00 in 0.00 in 0.00 in ()
Month to date snowfall 0.0  
Since 1 June snowfall 0.0  
Since 1 July snowfall 0.0  
Snow Depth -    
Sea Level Pressure  
Sea Level Pressure 30.10 in    
Wind  
Wind Speed 5 mph (SSE)    
Max Wind Speed 13 mph    
Max Gust Speed -    
Visibility 10 miles    
Events Thunderstorm    
T = Trace of Precipitation, MM = Missing Value Source: NWS Daily Summary

Daily Weather History Graph

Daily Weather History Graph

Search for Another Location

Airport:

Trip Planner

Search our weather history database for the weather conditions in past years. The results will help you decide how hot, cold, wet, or windy it might be!

Date:

Astronomy

Jul. 20, 2012 Rise Set
Actual Time 5:40 AM CDT 8:46 PM CDT
Civil Twilight 5:05 AM CDT 9:21 PM CDT
Nautical Twilight 4:20 AM CDT 10:06 PM CDT
Astronomical Twilight 3:25 AM CDT 11:00 PM CDT
Moon 7:25 AM CDT (7/20) 9:18 PM CDT (7/20)
Length of Visible Light 16h 15m
Length of Day
15h 05m
Waxing Crescent, 3% of the Moon is Illuminated
Jul 20
Waxing Crescent
Jul 26
First Quarter
Aug 1
Full
Aug 9
Last Quarter
Aug 17
New

Hourly Weather History & Observations

Time (CDT) Temp. Heat Index Dew Point Humidity Pressure Visibility Wind Dir Wind Speed Gust Speed Precip Events Conditions
12:15 AM 66.2 °F - 60.8 °F 83% 30.09 in 10.0 mi ESE 9.2 mph - N/A   Clear
12:35 AM 64.4 °F - 60.8 °F 88% 30.09 in 10.0 mi SE 5.8 mph - N/A   Clear
12:55 AM 64.4 °F - 60.8 °F 88% 30.10 in 10.0 mi ESE 5.8 mph - N/A   Clear
1:15 AM 64.4 °F - 59.0 °F 83% 30.11 in 10.0 mi Calm Calm - N/A   Clear
1:35 AM 64.4 °F - 59.0 °F 83% 30.11 in 10.0 mi Calm Calm - N/A   Clear
1:55 AM 64.4 °F - 59.0 °F 83% 30.12 in 10.0 mi Calm Calm - N/A   Clear
2:15 AM 62.6 °F - 59.0 °F 88% 30.11 in 10.0 mi East 3.5 mph - N/A   Clear
2:35 AM 62.6 °F - 59.0 °F 88% 30.13 in 10.0 mi Calm Calm - N/A   Clear
2:55 AM 62.6 °F - 59.0 °F 88% 30.12 in 10.0 mi East 3.5 mph - N/A   Clear
3:15 AM 60.8 °F - 59.0 °F 94% 30.11 in 10.0 mi ESE 3.5 mph - N/A   Clear
3:35 AM 60.8 °F - 59.0 °F 94% 30.11 in 10.0 mi Calm Calm - N/A   Clear
3:55 AM 60.8 °F - 59.0 °F 94% 30.12 in 10.0 mi Calm Calm - N/A   Clear
4:15 AM 60.8 °F - 59.0 °F 94% 30.11 in 10.0 mi Calm Calm - N/A   Clear
4:35 AM 60.8 °F - 57.2 °F 88% 30.12 in 10.0 mi Calm Calm - N/A   Clear
4:55 AM 60.8 °F - 59.0 °F 94% 30.11 in 10.0 mi ESE 4.6 mph - N/A   Clear
5:15 AM 60.8 °F - 59.0 °F 94% 30.11 in 10.0 mi Calm Calm - N/A   Clear
5:35 AM 59.0 °F - 57.2 °F 94% 30.11 in 10.0 mi ESE 3.5 mph - N/A   Clear
5:55 AM 60.8 °F - 57.2 °F 88% 30.11 in 7.0 mi ESE 4.6 mph - N/A   Clear
6:15 AM 59.0 °F - 57.2 °F 94% 30.13 in 7.0 mi East 4.6 mph - N/A   Clear
6:35 AM 60.8 °F - 57.2 °F 88% 30.13 in 7.0 mi ESE 4.6 mph - N/A   Clear
6:55 AM 60.8 °F - 59.0 °F 94% 30.14 in 10.0 mi Calm Calm - N/A   Clear
7:15 AM 62.6 °F - 59.0 °F 88% 30.14 in 10.0 mi Calm Calm - N/A   Clear
7:35 AM 62.6 °F - 59.0 °F 88% 30.15 in 10.0 mi ESE 4.6 mph - N/A   Clear
7:55 AM 62.6 °F - 59.0 °F 88% 30.14 in 10.0 mi ESE 8.1 mph - N/A   Clear
8:15 AM 64.4 °F - 59.0 °F 83% 30.15 in 10.0 mi ESE 6.9 mph - N/A   Clear
8:35 AM 66.2 °F - 60.8 °F 83% 30.17 in 10.0 mi ESE 4.6 mph - N/A   Clear
8:55 AM 68.0 °F - 59.0 °F 73% 30.16 in 10.0 mi SE 3.5 mph - N/A   Clear
9:15 AM 68.0 °F - 59.0 °F 73% 30.16 in 10.0 mi SE 3.5 mph - N/A   Clear
9:35 AM 69.8 °F - 59.0 °F 68% 30.16 in 10.0 mi South 4.6 mph - N/A   Clear
9:55 AM 71.6 °F - 59.0 °F 64% 30.15 in 10.0 mi SE 5.8 mph - N/A   Clear
10:15 AM 71.6 °F - 59.0 °F 64% 30.13 in 10.0 mi SSE 5.8 mph - N/A   Clear
10:35 AM 73.4 °F - 59.0 °F 61% 30.14 in 10.0 mi SE 9.2 mph - N/A   Clear
10:55 AM 73.4 °F - 59.0 °F 61% 30.15 in 10.0 mi SSE 6.9 mph - N/A Thunderstorm Clear
11:15 AM 75.2 °F - 57.2 °F 53% 30.15 in 10.0 mi SSE 6.9 mph - N/A   Clear
11:35 AM 75.2 °F - 57.2 °F 53% 30.16 in 10.0 mi South 8.1 mph - N/A   Clear
11:55 AM 77.0 °F - 59.0 °F 54% 30.17 in 10.0 mi SW 5.8 mph - N/A   Scattered Clouds
12:15 PM 77.0 °F - 59.0 °F 54% 30.17 in 10.0 mi WSW 5.8 mph - N/A   Mostly Cloudy
12:35 PM 77.0 °F - 59.0 °F 54% 30.15 in 10.0 mi South 6.9 mph - N/A   Mostly Cloudy
12:55 PM 78.8 °F - 59.0 °F 51% 30.16 in 10.0 mi SSW 5.8 mph - N/A   Scattered Clouds
1:15 PM 77.0 °F - 59.0 °F 54% 30.14 in 10.0 mi South 5.8 mph - N/A Thunderstorm Thunderstorm
1:35 PM 78.8 °F - 60.8 °F 54% 30.13 in 10.0 mi ESE 5.8 mph - N/A Thunderstorm Thunderstorm
1:55 PM 78.8 °F - 60.8 °F 54% 30.11 in 10.0 mi SE 9.2 mph - N/A Thunderstorm Clear
2:15 PM 78.8 °F - 60.8 °F 54% 30.11 in 10.0 mi SE 5.8 mph - N/A Thunderstorm Clear
2:35 PM 78.8 °F - 62.6 °F 57% 30.10 in 10.0 mi SE 8.1 mph - N/A   Clear
2:55 PM 78.8 °F - 60.8 °F 54% 30.09 in 10.0 mi SSE 9.2 mph - N/A   Clear
3:15 PM 80.6 °F 81.5 °F 60.8 °F 51% 30.08 in 10.0 mi SSE 9.2 mph - N/A   Clear
3:35 PM 80.6 °F 81.8 °F 62.6 °F 54% 30.07 in 10.0 mi SSE 12.7 mph - N/A   Clear
3:55 PM 78.8 °F - 60.8 °F 54% 30.07 in 10.0 mi SSW 6.9 mph - N/A   Clear
4:15 PM 78.8 °F - 60.8 °F 54% 30.07 in 10.0 mi South 8.1 mph - N/A   Clear
4:35 PM 78.8 °F - 62.6 °F 57% 30.07 in 10.0 mi SSW 9.2 mph - N/A   Clear
4:55 PM 80.6 °F 81.8 °F 62.6 °F 54% 30.07 in 10.0 mi SW 11.5 mph - N/A   Clear
5:15 PM 78.8 °F - 60.8 °F 54% 30.06 in 10.0 mi SSW 11.5 mph - N/A   Clear
5:35 PM 80.6 °F 81.5 °F 60.8 °F 51% 30.06 in 10.0 mi SW 12.7 mph - N/A   Clear
5:55 PM 80.6 °F 81.5 °F 60.8 °F 51% 30.05 in 10.0 mi South 10.4 mph - N/A   Clear
6:15 PM 80.6 °F 81.5 °F 60.8 °F 51% 30.05 in 10.0 mi SSW 8.1 mph - N/A   Clear
6:35 PM 80.6 °F 81.8 °F 62.6 °F 54% 30.05 in 10.0 mi South 8.1 mph - N/A   Clear
6:55 PM 80.6 °F 81.8 °F 62.6 °F 54% 30.05 in 10.0 mi South 4.6 mph - N/A   Clear
7:15 PM 80.6 °F 81.8 °F 62.6 °F 54% 30.04 in 10.0 mi SSE 4.6 mph - N/A   Clear
7:35 PM 80.6 °F 81.8 °F 62.6 °F 54% 30.05 in 10.0 mi SSE 3.5 mph - N/A   Clear
7:55 PM 78.8 °F - 64.4 °F 61% 30.05 in 10.0 mi SSE 3.5 mph - N/A   Clear
8:15 PM 77.0 °F - 64.4 °F 65% 30.05 in 10.0 mi SE 3.5 mph - N/A   Clear
8:35 PM 75.2 °F - 64.4 °F 69% 30.04 in 10.0 mi SE 4.6 mph - N/A   Clear
8:55 PM 73.4 °F - 66.2 °F 78% 30.04 in 10.0 mi Calm Calm - N/A   Clear
9:15 PM 73.4 °F - 64.4 °F 73% 30.03 in 10.0 mi SSE 3.5 mph - N/A   Clear
9:35 PM 71.6 °F - 64.4 °F 78% 30.04 in 10.0 mi SSE 3.5 mph - N/A   Clear
9:55 PM 71.6 °F - 64.4 °F 78% 30.04 in 10.0 mi SE 4.6 mph - N/A   Clear
10:15 PM 71.6 °F - 64.4 °F 78% 30.04 in 10.0 mi Calm Calm - N/A   Clear
10:35 PM 69.8 °F - 64.4 °F 83% 30.04 in 10.0 mi Calm Calm - N/A   Clear
11:15 PM 69.8 °F - 64.4 °F 83% 30.04 in 10.0 mi Calm Calm - N/A   Clear
11:35 PM 69.8 °F - 64.4 °F 83% 30.05 in 10.0 mi Calm Calm - N/A   Clear
11:55 PM 69.8 °F - 64.4 °F 83% 30.05 in 10.0 mi Calm Calm - N/A   Scattered Clouds